This demonstration page uses our WeatherBlox Daily Observations layout. Learn more.

Left ArrowRight Arrow

Hourly Observations for June 15, 2021

Temp ( °F °C ) Dew Point ( °F °C ) Humidity (%) Winds ( mph kmh ) Pressure ( in mb ) Visibility ( mi km ) Precip ( " mm )
12:53 am 00:53 Clear 69 20.6 47 8.3 45 45 WSW 5 7 29.95 1014 10 16 0.00 0.00
1:53 am 01:53 Clear 68 20 47 8.3 47 47 S 3 6 29.96 1015 10 16 0.00 0.00
2:53 am 02:53 Clear 66 18.9 46 7.8 49 49 W 6 9 29.97 1015 10 16 0.00 0.00
3:53 am 03:53 Clear 61 16.1 46 7.8 58 58 NE 5 7 29.99 1016 10 16 0.00 0.00
4:53 am 04:53 Clear 62 16.7 47 8.3 58 58 Calm 30.01 1016 10 16 0.00 0.00
5:53 am 05:53 Sunny 57 13.9 47 8.3 69 69 Calm 30.03 1017 10 16 0.00 0.00
6:53 am 06:53 Sunny 61 16.1 48 8.9 63 63 Calm 30.05 1018 10 16 0.00 0.00
7:53 am 07:53 Sunny 65 18.3 45 7.2 49 49 N 5 7 30.08 1019 10 16 0.00 0.00
8:53 am 08:53 Sunny 71 21.7 44 6.7 38 38 NNE 5 7 30.09 1019 10 16 0.00 0.00
9:53 am 09:53 Sunny 74 23.3 35 1.7 24 24 NNW 7 11 30.10 1019 10 16 0.00 0.00
10:53 am 10:53 Sunny 76 24.4 35 1.7 23 23 VRB 5 7 30.10 1019 10 16 0.00 0.00
11:53 am 11:53 Sunny 78 25.6 32 0 19 19 Calm 30.10 1019 10 16 0.00 0.00
12:53 pm 12:53 Sunny 81 27.2 31 -0.6 16 16 NNE 6 9 30.09 1019 10 16 0.00 0.00
1:53 pm 13:53 Sunny 83 28.3 33 0.6 17 17 ENE 6 9 30.07 1018 10 16 0.00 0.00
2:53 pm 14:53 Sunny 84 28.9 33 0.6 16 16 Calm 30.06 1018 10 16 0.00 0.00
3:53 pm 15:53 Sunny 86 30 32 0 14 14 undefined N/A 30.04 1017 10 16 0.00 0.00
4:53 pm 16:53 Sunny 88 31.1 30 -1.1 12 12 ENE 6 9 30.03 1017 10 16 0.00 0.00
5:53 pm 17:53 Sunny 90 32.2 26 -3.3 10 10 NE 9 15 30.01 1016 10 16 0.00 0.00
6:53 pm 18:53 Sunny 89 31.7 26 -3.3 10 10 NNE 12 19 30.00 1016 10 16 0.00 0.00
7:53 pm 19:53 Sunny 86 30 27 -2.8 12 12 NNW 3 6 29.99 1016 10 16 0.00 0.00
8:53 pm 20:53 Clear 78 25.6 32 0 19 19 N 3 6 30.00 1016 10 16 0.00 0.00
9:53 pm 21:53 Clear 78 25.6 32 0 19 19 WNW 7 11 30.01 1016 10 16 0.00 0.00
10:53 pm 22:53 Clear 73 22.8 36 2.2 26 26 N 10 17 30.02 1017 10 16 0.00 0.00
11:53 pm 23:53 Clear 72 22.2 38 3.3 29 29 NNW 6 9 30.01 1016 10 16 0.00 0.00

Powered by AerisWeather